This demonstration page uses our WeatherBlox Daily Observations layout. Learn more.

Left ArrowRight Arrow

34.02893, -84.19858

Hourly Observations for November 3, 2019

Temp ( °F °C ) Dew Point ( °F °C ) Humidity (%) Winds ( mph kmh ) Pressure ( in mb ) Visibility ( mi km ) Precip ( " mm )
12:53 am 00:53 Clear 38 3.3 31 -0.6 76 76 N 6 9 30.23 1024 10 16 0.00 0.00
1:53 am 01:53 Clear 41 5 32 0 70 70 NNW 8 13 30.22 1023 10 16 0.00 0.00
1:53 am 01:53 Clear 40 4.4 32 0 73 73 NNW 8 13 30.23 1024 10 16 0.00 0.00
2:53 am 02:53 Clear 38 3.3 32 0 79 79 NNW 5 7 30.23 1024 10 16 0.00 0.00
3:53 am 03:53 Clear 35 1.7 30 -1.1 82 82 N 5 7 30.23 1024 10 16 0.00 0.00
4:53 am 04:53 Clear 35 1.7 32 0 89 89 Calm 30.24 1024 10 16 0.00 0.00
5:53 am 05:53 Clear 33 0.6 31 -0.6 92 92 SSW 3 6 30.27 1025 10 16 0.00 0.00
6:53 am 06:53 Clear 32 0 30 -1.1 92 92 Calm 30.28 1026 10 16 0.00 0.00
7:53 am 07:53 Sunny 36 2.2 35 1.7 97 97 Calm 30.30 1026 10 16 0.00 0.00
8:53 am 08:53 Sunny 45 7.2 34 1.1 66 66 NNE 5 7 30.31 1027 10 16 0.00 0.00
9:53 am 09:53 Sunny 50 10 33 0.6 52 52 VRB 6 9 30.32 1027 10 16 0.00 0.00
10:53 am 10:53 Sunny 53 11.7 30 -1.1 41 41 ESE 5 7 30.30 1026 10 16 0.00 0.00
11:53 am 11:53 Sunny 55 12.8 30 -1.1 38 38 Calm 30.29 1026 10 16 0.00 0.00
12:53 pm 12:53 Sunny 57 13.9 28 -2.2 33 33 Calm 30.25 1024 10 16 0.00 0.00
1:53 pm 13:53 Sunny 58 14.4 29 -1.7 33 33 W 5 7 30.22 1023 10 16 0.00 0.00
2:53 pm 14:53 Sunny 61 16.1 29 -1.7 30 30 Calm 30.20 1023 10 16 0.00 0.00
3:53 pm 15:53 Sunny 60 15.6 28 -2.2 30 30 Calm 30.20 1023 10 16 0.00 0.00
4:53 pm 16:53 Sunny 59 15 28 -2.2 31 31 Calm 30.20 1023 10 16 0.00 0.00
5:53 pm 17:53 Clear 49 9.4 36 2.2 61 61 Calm 30.21 1023 10 16 0.00 0.00
6:53 pm 18:53 Clear 46 7.8 37 2.8 71 71 Calm 30.23 1024 10 16 0.00 0.00
7:53 pm 19:53 Clear 42 5.6 37 2.8 82 82 Calm 30.23 1024 10 16 0.00 0.00
8:53 pm 20:53 Clear 43 6.1 37 2.8 80 80 Calm 30.23 1024 10 16 0.00 0.00
9:53 pm 21:53 Clear 41 5 36 2.2 82 82 Calm 30.24 1024 10 16 0.00 0.00
10:53 pm 22:53 Clear 40 4.4 36 2.2 86 86 Calm 30.22 1024 10 16 0.00 0.00
11:53 pm 23:53 Clear 39 3.9 36 2.2 89 89 Calm 30.23 1024 10 16 0.00 0.00

Powered by AerisWeather